Regional Weather Roundup
Issued by NWS Kansas City/Pleasant Hill, MO

Home | Current Version | Previous Version | Text Only | Print | Product List | Glossary On
Versions: 1 2 3 4 5 6 7 8 9 10 11 12 13 14 15 16 17 18 19 20 21 22 23 24 25 26 27
000
ASUS43 KEAX 220710
RWREAX

WEATHER ROUNDUP FOR EASTERN KANSAS AND NORTHWEST MISSOURI
NATIONAL WEATHER SERVICE KANSAS CITY/PLEASANT HILL MO
100 AM CST WED FEB 22 2017

KSZ040-057-103>105-MOZ028-029-037-043-220800-
...KANSAS CITY METROPOLITAN AREA...

CITY           SKY/WX    TMP DP  RH WIND       PRES   REMARKS
K.C. INTL      CLEAR     45  35  68 S10       29.84F
K.C. DOWNTOWN  CLEAR     48  38  68 CALM      29.84F
LEES SUMMIT    CLEAR     53  46  77 S10       29.86F
OLATHE - IXD   CLEAR     43  37  79 S5        29.86F
OLATHE - OJC   CLEAR     47  40  76 S7        29.86F
LAWRENCE       CLOUDY    39  32  76 E3        29.86F

$$

MOZ001>008-011>017-020>025-030>033-038>040-044>046-053-054-220800-
...NORTHERN AND CENTRAL MISSOURI...

CITY           SKY/WX    TMP DP  RH WIND       PRES   REMARKS
ST. JOSEPH     PTCLDY    42  37  82 S5        29.84S
WARRENSBURG    CLEAR     46  45  93 S5        29.88S
WHITEMAN AFB   CLEAR     50  50 100 S8        29.87S
CLINTON        CLEAR     54  52  94 CALM      29.89F
SEDALIA        CLEAR     56  54  93 SW9       29.89S
WARSAW         NOT AVBL
CHILLICOTHE      N/A     43  38  82 S3        29.86F
KIRKSVILLE     CLEAR     55  53  93 SW9       29.86S

$$

MOZ041-047>049-056>058-063>065-088>090-097-220800-
...EASTERN AND SOUTHERN MISSOURI...

CITY           SKY/WX    TMP DP  RH WIND       PRES   REMARKS
ST. LOUIS INTL MOCLDY    58  53  84 S3        29.88S
SPIRIT OF STL  FOG       55  55 100 NW3       29.87S VSB 1/2
COLUMBIA       FOG       51  51 100 SW5       29.89R VSB 1/4
JEFFERSON CITY FOG       49  49 100 NW3       29.89R VSB 1/4
ROLLA          FOG       53  53 100 S5        29.87S VSB 1/4
OSAGE BEACH    FOG       49  48  97 W3        29.91R VSB 1/4
SPRINGFIELD    FOG       51  51 100 SW6       29.92R VSB 1/4
JOPLIN         CLEAR     52  52 100 S6        29.91F
WEST PLAINS    CLOUDY    55  54  96 CALM      29.92S FOG

$$

IAZ060-094-KSZ022-034>040-054-083-096-NEZ052-066-093-220800-
...KANSAS...SOUTHEAST NEBRASKA AND IOWA...

CITY           SKY/WX    TMP DP  RH WIND       PRES   REMARKS
TOPEKA         PTCLDY    42  34  73 CALM      29.85S
MANHATTAN      CLEAR     42  35  76 CALM      29.83F
EMPORIA        CLEAR     44  34  67 S10       29.86F
CHANUTE        CLEAR     45  39  79 S8        29.89F
WICHITA        CLEAR     43  37  79 S7        29.88F
OMAHA          PTCLDY    46  35  65 SE12      29.75F
LINCOLN        CLEAR     54  35  48 S12       29.77S
FALLS CITY     CLEAR     53  33  46 S13       29.80F
LAMONI         CLEAR     49  35  58 S13       29.81F
DES MOINES     CLEAR     50  33  52 S9        29.77F

$$





USA.gov is the U.S. government's official web portal to all federal, state and local government web resources and services.